User: anonymous   Login
Location: ?????????
(55.6553°N, 38.9075°E)
Time: 12:46:25
(UTC+00:00)
Language:

Meteor 1-16 Rocket - Orbit

View from above orbital plane
View from above orbital plane
View from above satellite
View from above satellite

Ground track
Ground track

The orbit data is extracted from the following two-line orbital elements,

1  7210U 74011B   19347.94489865 +.00000197 +00000-0 +96463-4 0  9999
2  7210 081.2377 236.7719 0080133 311.3445 048.0851 14.13082335358205
Epoch (UTC): 13 December 2019 22:40:39
Eccentricity: 0.0080133
inclination: 81.2377°
perigee height: 791 km
apogee height: 907 km
right ascension of ascending node: 236.7719°
argument of perigee: 311.3445°
revolutions per day: 14.13082335
mean anomaly at epoch: 48.0851°
orbit number at epoch: 35820

The dashed part of the orbit path shows where the satellite is in the earth's shadow,  

DLR